STARLINK-23

decayed
NORAD ID: 44237 Int'l Des: 2019-029 Owner: SPXS Country: US Constellation: starlink
LEOCIRCULAR
Group

About STARLINK-23

Description loading...

Altitude History

Altitude vs Time

uPlot chart will show altitude changes over time

Two-Line Element Set

1 44237U 19029C 20246.24351608 +.23336896 +12391-4 +15299-2 0 9992
2 44237 052.9945 186.9776 0004551 271.9057 198.4437 16.40837491071205
Epoch: Sep 2, 2020 • Age: 44148 hours

Current Status

Position data unavailable
Launch Date May 24, 2019
Age 6.3 years
Decay Date Sep 2, 2020
Type internet

Technical Details

Classification Payload
Mass 227.00 kg
Dry Mass 219.00 kg
Total Mass 227.00 kg
Length 0.20 m
Diameter 2.80 m
Span 9.00 m
Shape Box + pan
Manufacturer SPXS
Bus Type Starlink
Phase Status Reentered
Owner/State SPXS/US

Large Constellations

Loading constellations...